When you browse on this site, cookies collect data to enhance your experience and personalize the content and advertising you see.
Visit our Privacy Policy to learn more. By continuing to use the site, you agree to this use of cookies and data.

Hourly Weather Brest

Today, 3 August, Monday

Time Temperature Precipitation Wind Pressure Humidity
00:00 +17°C° 0 mm 2 mps 748 mmHg 80%
01:00 +16°C° 0 mm 2 mps 747 mmHg 83%
02:00 +16°C° 0 mm 3 mps 747 mmHg 82%
03:00 +16°C° 0 mm 2 mps 747 mmHg 81%
04:00 +16°C° 0 mm 2 mps 747 mmHg 81%
05:00 +16°C° 0 mm 2 mps 747 mmHg 80%
06:00 +17°C° 0 mm 3 mps 747 mmHg 76%
07:00 +19°C° 0 mm 3 mps 747 mmHg 72%
08:00 +20°C° 0 mm 3 mps 747 mmHg 68%
09:00 +21°C° 0 mm 4 mps 747 mmHg 63%
10:00 +23°C° 0 mm 5 mps 747 mmHg 58%
11:00 +24°C° 0 mm 6 mps 747 mmHg 54%
12:00 +26°C° 0 mm 6 mps 746 mmHg 53%
13:00 +26°C° 0 mm 6 mps 746 mmHg 52%
14:00 +27°C° 0 mm 6 mps 746 mmHg 50%
15:00 +27°C° 0 mm 5 mps 745 mmHg 53%
16:00 +27°C° 0 mm 5 mps 745 mmHg 55%
17:00 +27°C° 0 mm 5 mps 745 mmHg 57%
18:00 +25°C° 0 mm 5 mps 745 mmHg 64%
19:00 +23°C° 0 mm 4 mps 744 mmHg 70%
20:00 +21°C° 0 mm 4 mps 744 mmHg 77%
21:00 +21°C° 0 mm 4 mps 744 mmHg 80%
22:00 +20°C° 0 mm 4 mps 744 mmHg 82%
23:00 +20°C° 0 mm 4 mps 744 mmHg 84%

Tomorrow, 4 August, Tuesday

Time Temperature Precipitation Wind Pressure Humidity
00:00 +19°C° 0 mm 4 mps 744 mmHg 85%
01:00 +19°C° 0 mm 4 mps 744 mmHg 86%
02:00 +19°C° 0 mm 3 mps 744 mmHg 87%
03:00 +19°C° 0 mm 3 mps 744 mmHg 87%
04:00 +19°C° 0 mm 3 mps 744 mmHg 86%
05:00 +18°C° 0 mm 3 mps 743 mmHg 86%
06:00 +19°C° 0.1 mm 3 mps 743 mmHg 83%
07:00 +20°C° 0.1 mm 3 mps 744 mmHg 80%
08:00 +21°C° 0.1 mm 3 mps 744 mmHg 78%
09:00 +21°C° 0 mm 3 mps 744 mmHg 75%
10:00 +22°C° 0 mm 4 mps 744 mmHg 71%
11:00 +23°C° 0 mm 5 mps 743 mmHg 68%
12:00 +25°C° 0 mm 5 mps 744 mmHg 66%
13:00 +26°C° 0 mm 4 mps 744 mmHg 63%
14:00 +27°C° 0 mm 4 mps 744 mmHg 61%
15:00 +27°C° 0.1 mm 4 mps 744 mmHg 61%
16:00 +28°C° 0.1 mm 4 mps 744 mmHg 62%
17:00 +28°C° 0.1 mm 4 mps 744 mmHg 63%
18:00 +26°C° 0.4 mm 3 mps 744 mmHg 69%
19:00 +25°C° 0.4 mm 3 mps 745 mmHg 76%
20:00 +23°C° 0.4 mm 2 mps 745 mmHg 83%
21:00 +21°C° 0.3 mm 2 mps 745 mmHg 87%
22:00 +20°C° 0.3 mm 3 mps 746 mmHg 92%
23:00 +19°C° 0.3 mm 3 mps 747 mmHg 96%

Day after tomorrow, 5 August, Wednesday

Time Temperature Precipitation Wind Pressure Humidity
00:00 +19°C° 0.3 mm 3 mps 747 mmHg 96%
01:00 +18°C° 0.3 mm 3 mps 747 mmHg 95%
02:00 +18°C° 0.3 mm 3 mps 748 mmHg 95%
03:00 +18°C° 0 mm 3 mps 748 mmHg 95%
04:00 +18°C° 0 mm 3 mps 748 mmHg 94%
05:00 +17°C° 0 mm 4 mps 748 mmHg 94%
06:00 +17°C° 0 mm 4 mps 749 mmHg 93%
07:00 +18°C° 0 mm 4 mps 749 mmHg 91%
08:00 +18°C° 0 mm 4 mps 750 mmHg 90%
09:00 +18°C° 0 mm 4 mps 750 mmHg 87%
10:00 +19°C° 0 mm 4 mps 751 mmHg 85%
11:00 +20°C° 0 mm 4 mps 751 mmHg 82%
12:00 +20°C° 0 mm 3 mps 751 mmHg 78%
13:00 +21°C° 0 mm 3 mps 751 mmHg 75%
14:00 +22°C° 0 mm 3 mps 751 mmHg 71%
15:00 +22°C° 0 mm 3 mps 752 mmHg 71%
16:00 +24°C° 0 mm 3 mps 752 mmHg 70%
17:00 +24°C° 0 mm 3 mps 752 mmHg 69%
18:00 +22°C° 0 mm 3 mps 752 mmHg 74%
19:00 +21°C° 0 mm 3 mps 752 mmHg 79%
20:00 +20°C° 0 mm 2 mps 752 mmHg 84%
21:00 +19°C° 0 mm 2 mps 753 mmHg 87%
22:00 +19°C° 0 mm 2 mps 753 mmHg 89%
23:00 +18°C° 0 mm 2 mps 753 mmHg 92%

6 August, Thursday

Time Temperature Precipitation Wind Pressure Humidity
00:00 +18°C° 0 mm 2 mps 753 mmHg 93%
01:00 +17°C° 0 mm 3 mps 753 mmHg 93%
02:00 +17°C° 0 mm 3 mps 754 mmHg 94%
03:00 +17°C° 0 mm 3 mps 754 mmHg 94%
04:00 +16°C° 0 mm 3 mps 754 mmHg 93%
05:00 +16°C° 0 mm 3 mps 754 mmHg 93%
06:00 +18°C° 0 mm 3 mps 754 mmHg 88%
07:00 +19°C° 0 mm 3 mps 755 mmHg 84%
08:00 +20°C° 0 mm 3 mps 755 mmHg 80%
09:00 +22°C° 0 mm 3 mps 755 mmHg 74%
10:00 +24°C° 0 mm 3 mps 755 mmHg 69%
11:00 +26°C° 0 mm 3 mps 755 mmHg 64%
12:00 +27°C° 0 mm 3 mps 755 mmHg 62%
13:00 +27°C° 0 mm 3 mps 755 mmHg 60%
14:00 +28°C° 0 mm 3 mps 755 mmHg 59%
15:00 +28°C° 0.1 mm 4 mps 755 mmHg 60%
16:00 +27°C° 0.1 mm 4 mps 755 mmHg 62%
17:00 +27°C° 0.1 mm 4 mps 755 mmHg 63%
18:00 +26°C° 0 mm 4 mps 755 mmHg 68%
19:00 +24°C° 0 mm 3 mps 755 mmHg 74%
20:00 +22°C° 0 mm 3 mps 755 mmHg 79%
21:00 +21°C° 0 mm 3 mps 756 mmHg 80%
22:00 +21°C° 0 mm 3 mps 756 mmHg 82%
23:00 +20°C° 0 mm 3 mps 756 mmHg 83%

7 August, Friday

Time Temperature Precipitation Wind Pressure Humidity
00:00 +19°C° 0 mm 3 mps 756 mmHg 82%
01:00 +19°C° 0 mm 3 mps 756 mmHg 82%
02:00 +18°C° 0 mm 3 mps 756 mmHg 82%
03:00 +18°C° 0 mm 3 mps 756 mmHg 81%
04:00 +17°C° 0 mm 3 mps 756 mmHg 79%
05:00 +17°C° 0 mm 3 mps 756 mmHg 78%
06:00 +18°C° 0 mm 3 mps 757 mmHg 75%
07:00 +19°C° 0 mm 3 mps 757 mmHg 73%
08:00 +20°C° 0 mm 3 mps 757 mmHg 70%
09:00 +22°C° 0 mm 4 mps 757 mmHg 65%
10:00 +25°C° 0 mm 4 mps 757 mmHg 60%
11:00 +26°C° 0 mm 4 mps 757 mmHg 55%
12:00 +27°C° 0 mm 4 mps 757 mmHg 52%
13:00 +28°C° 0 mm 4 mps 757 mmHg 49%
14:00 +28°C° 0 mm 4 mps 756 mmHg 47%
15:00 +28°C° 0 mm 4 mps 756 mmHg 49%
16:00 +28°C° 0 mm 4 mps 756 mmHg 51%
17:00 +27°C° 0 mm 4 mps 756 mmHg 53%
18:00 +26°C° 0 mm 4 mps 756 mmHg 59%
19:00 +24°C° 0 mm 3 mps 756 mmHg 66%
20:00 +22°C° 0 mm 3 mps 756 mmHg 72%
21:00 +21°C° 0 mm 3 mps 756 mmHg 76%
22:00 +20°C° 0 mm 3 mps 756 mmHg 79%
23:00 +19°C° 0 mm 3 mps 756 mmHg 82%

8 August, Saturday

Time Temperature Precipitation Wind Pressure Humidity
00:00 +18°C° 0 mm 2 mps 756 mmHg 83%
01:00 +18°C° 0 mm 2 mps 756 mmHg 84%
02:00 +17°C° 0 mm 2 mps 756 mmHg 85%
03:00 +17°C° 0 mm 2 mps 756 mmHg 87%
04:00 +17°C° 0 mm 2 mps 756 mmHg 89%
05:00 +16°C° 0 mm 2 mps 755 mmHg 90%
06:00 +18°C° 0 mm 2 mps 756 mmHg 85%
07:00 +19°C° 0 mm 2 mps 756 mmHg 80%
08:00 +21°C° 0 mm 3 mps 756 mmHg 75%
09:00 +22°C° 0 mm 3 mps 756 mmHg 68%
10:00 +25°C° 0 mm 3 mps 755 mmHg 62%
11:00 +26°C° 0 mm 3 mps 755 mmHg 56%
12:00 +26°C° 0 mm 3 mps 755 mmHg 54%
13:00 +27°C° 0 mm 3 mps 755 mmHg 53%
14:00 +27°C° 0 mm 3 mps 754 mmHg 52%
15:00 +27°C° 0 mm 3 mps 754 mmHg 52%
16:00 +27°C° 0 mm 2 mps 754 mmHg 53%
17:00 +27°C° 0 mm 2 mps 753 mmHg 54%
18:00 +25°C° 0 mm 2 mps 753 mmHg 59%
19:00 +24°C° 0 mm 2 mps 753 mmHg 65%
20:00 +21°C° 0 mm 2 mps 753 mmHg 71%
21:00 +22°C° 0 mm 1 mps 753 mmHg 73%
22:00 +21°C° 0 mm 1 mps 753 mmHg 76%
23:00 +20°C° 0 mm 1 mps 753 mmHg 78%
Show more